Year,Month,Day,Hour,Minute,Value (Times are PST for temperature in C)
2008,05,20,00,00,14.10
2008,05,20,00,01,14.10
2008,05,20,00,02,14.10
2008,05,20,00,03,14.00
2008,05,20,00,04,14.00
2008,05,20,00,05,14.00
2008,05,20,00,06,14.00
2008,05,20,00,07,14.10
2008,05,20,00,08,14.10
2008,05,20,00,09,14.10
2008,05,20,00,10,14.20
2008,05,20,00,11,14.20
2008,05,20,00,12,14.20
2008,05,20,00,13,14.30
2008,05,20,00,14,14.30
2008,05,20,00,15,14.40
2008,05,20,00,16,14.50
2008,05,20,00,17,14.50
2008,05,20,00,18,14.50
2008,05,20,00,19,14.60
2008,05,20,00,20,14.60
2008,05,20,00,21,14.60
2008,05,20,00,22,14.60
2008,05,20,00,23,14.60
2008,05,20,00,24,14.50
2008,05,20,00,25,14.50
2008,05,20,00,26,14.50
2008,05,20,00,27,14.50
2008,05,20,00,28,14.50
2008,05,20,00,29,14.50
2008,05,20,00,30,14.50
2008,05,20,00,31,14.50
2008,05,20,00,32,14.50
2008,05,20,00,33,14.50
2008,05,20,00,34,14.50
2008,05,20,00,35,14.50
2008,05,20,00,36,14.50
2008,05,20,00,37,14.50
2008,05,20,00,38,14.50
2008,05,20,00,39,14.50
2008,05,20,00,40,14.50
2008,05,20,00,41,14.50
2008,05,20,00,42,14.50
2008,05,20,00,43,14.50
2008,05,20,00,44,14.50
2008,05,20,00,45,14.60
2008,05,20,00,46,14.60
2008,05,20,00,47,14.50
2008,05,20,00,48,14.50
2008,05,20,00,49,14.50
2008,05,20,00,50,14.50
2008,05,20,00,51,14.50
2008,05,20,00,52,14.50
2008,05,20,00,53,14.50
2008,05,20,00,54,14.50
2008,05,20,00,55,14.50
2008,05,20,00,56,14.50
2008,05,20,00,57,14.50
2008,05,20,00,58,14.50
2008,05,20,00,59,14.50
2008,05,20,01,00,14.50
2008,05,20,01,01,14.50
2008,05,20,01,02,14.50
2008,05,20,01,03,14.50
2008,05,20,01,04,14.50
2008,05,20,01,05,14.50
2008,05,20,01,06,14.50
2008,05,20,01,07,14.50
2008,05,20,01,08,14.50
2008,05,20,01,09,14.50
2008,05,20,01,10,14.50
2008,05,20,01,11,14.50
2008,05,20,01,12,14.50
2008,05,20,01,13,14.60
2008,05,20,01,14,14.70
2008,05,20,01,15,14.70
2008,05,20,01,16,14.70
2008,05,20,01,17,14.80
2008,05,20,01,18,14.80
2008,05,20,01,19,14.90
2008,05,20,01,20,14.90
2008,05,20,01,21,14.90
2008,05,20,01,22,14.90
2008,05,20,01,23,14.90
2008,05,20,01,24,14.90
2008,05,20,01,25,14.90
2008,05,20,01,26,14.90
2008,05,20,01,27,14.90
2008,05,20,01,28,14.90
2008,05,20,01,29,14.90
2008,05,20,01,30,14.90
2008,05,20,01,31,14.90
2008,05,20,01,47,14.70
2008,05,20,01,48,14.70
2008,05,20,01,49,14.70
2008,05,20,01,50,14.70
2008,05,20,01,51,14.70
2008,05,20,01,52,14.70
2008,05,20,01,53,14.70
2008,05,20,01,54,14.70
2008,05,20,01,55,14.80
2008,05,20,01,56,14.80
2008,05,20,01,57,14.80
2008,05,20,01,58,14.80
2008,05,20,01,59,14.80
2008,05,20,02,00,14.70
2008,05,20,02,01,14.70
2008,05,20,02,02,14.70
2008,05,20,02,03,14.60
2008,05,20,02,04,14.60
2008,05,20,02,05,14.60
2008,05,20,02,06,14.60
2008,05,20,02,07,14.50
2008,05,20,02,08,14.50
2008,05,20,02,09,14.50
2008,05,20,02,10,14.50
2008,05,20,02,11,14.60
2008,05,20,02,12,14.60
2008,05,20,02,13,14.60
2008,05,20,02,14,14.60
2008,05,20,02,15,14.60
2008,05,20,02,16,14.70
2008,05,20,02,17,14.70
2008,05,20,02,18,14.70
2008,05,20,02,19,14.60
2008,05,20,02,20,14.60
2008,05,20,02,21,14.60
2008,05,20,02,22,14.60
2008,05,20,02,23,14.60
2008,05,20,02,24,14.60
2008,05,20,02,25,14.60
2008,05,20,02,26,14.60
2008,05,20,02,27,14.60
2008,05,20,02,28,14.60
2008,05,20,02,29,14.60
2008,05,20,02,30,14.60
2008,05,20,02,31,14.60
2008,05,20,02,32,14.60
2008,05,20,02,33,14.60
2008,05,20,02,34,14.60
2008,05,20,02,35,14.60
2008,05,20,02,36,14.60
2008,05,20,02,37,14.60
2008,05,20,02,38,14.60
2008,05,20,02,39,14.60
2008,05,20,02,40,14.60
2008,05,20,02,41,14.60
2008,05,20,02,42,14.50
2008,05,20,02,43,14.50
2008,05,20,02,44,14.40
2008,05,20,02,45,14.30
2008,05,20,02,46,14.20
2008,05,20,02,47,14.20
2008,05,20,02,48,14.20
2008,05,20,02,49,14.20
2008,05,20,02,50,14.20
2008,05,20,02,51,14.20
2008,05,20,02,52,14.20
2008,05,20,02,53,14.20
2008,05,20,02,54,14.20
2008,05,20,02,55,14.20
2008,05,20,02,56,14.20
2008,05,20,02,57,14.20
2008,05,20,02,58,14.10
2008,05,20,02,59,14.00
2008,05,20,03,00,13.90
2008,05,20,03,01,13.80
2008,05,20,03,02,13.80
2008,05,20,03,03,13.70
2008,05,20,03,04,13.70
2008,05,20,03,05,13.70
2008,05,20,03,06,13.70
2008,05,20,03,07,13.70
2008,05,20,03,08,13.70
2008,05,20,03,09,13.60
2008,05,20,03,10,13.60
2008,05,20,03,11,13.60
2008,05,20,03,12,13.60
2008,05,20,03,13,13.60
2008,05,20,03,14,13.60
2008,05,20,03,15,13.60
2008,05,20,03,16,13.60
2008,05,20,03,17,13.50
2008,05,20,03,18,13.50
2008,05,20,03,19,13.50
2008,05,20,03,20,13.50
2008,05,20,03,21,13.50
2008,05,20,03,22,13.50
2008,05,20,03,23,13.50
2008,05,20,03,24,13.20
2008,05,20,03,25,13.10
2008,05,20,03,26,13.10
2008,05,20,03,27,13.00
2008,05,20,03,28,13.00
2008,05,20,03,29,13.00
2008,05,20,03,30,12.90
2008,05,20,03,31,12.90
2008,05,20,03,32,12.90
2008,05,20,03,33,12.90
2008,05,20,03,34,12.90
2008,05,20,03,35,12.90
2008,05,20,03,36,12.90
2008,05,20,03,37,12.90
2008,05,20,03,38,12.90
2008,05,20,03,39,12.80
2008,05,20,03,40,12.80
2008,05,20,03,41,12.80
2008,05,20,03,42,12.80
2008,05,20,03,43,12.80
2008,05,20,03,44,12.70
2008,05,20,03,45,12.70
2008,05,20,03,46,12.70
2008,05,20,03,47,12.80
2008,05,20,03,48,12.80
2008,05,20,03,49,12.80
2008,05,20,03,50,12.80
2008,05,20,03,51,12.80
2008,05,20,03,52,12.90
2008,05,20,03,53,12.90
2008,05,20,03,54,12.90
2008,05,20,03,55,13.00
2008,05,20,03,56,13.00
2008,05,20,03,57,13.00
2008,05,20,03,58,13.00
2008,05,20,03,59,13.10
2008,05,20,04,00,13.10
2008,05,20,04,01,13.10
2008,05,20,04,02,13.10
2008,05,20,04,03,13.20
2008,05,20,04,04,13.20
2008,05,20,04,05,13.20
2008,05,20,04,06,13.20
2008,05,20,04,07,13.30
2008,05,20,04,08,13.30
2008,05,20,04,09,13.30
2008,05,20,04,10,13.30
2008,05,20,04,11,13.30
2008,05,20,04,12,13.30
2008,05,20,04,13,13.30
2008,05,20,04,14,13.30
2008,05,20,04,15,13.50
2008,05,20,04,16,13.50
2008,05,20,04,17,13.50
2008,05,20,04,18,13.50
2008,05,20,04,19,13.50
2008,05,20,04,20,13.50
2008,05,20,04,21,13.60
2008,05,20,04,22,13.60
2008,05,20,04,23,13.60
2008,05,20,04,24,13.60
2008,05,20,04,25,13.60
2008,05,20,04,26,13.60
2008,05,20,04,27,13.60
2008,05,20,04,28,13.60
2008,05,20,04,29,13.60
2008,05,20,04,30,13.60
2008,05,20,04,31,13.60
2008,05,20,04,32,13.60
2008,05,20,04,33,13.60
2008,05,20,04,34,13.60
2008,05,20,04,35,13.60
2008,05,20,04,36,13.60
2008,05,20,04,37,13.60
2008,05,20,04,38,13.50
2008,05,20,04,39,13.50
2008,05,20,04,40,13.50
2008,05,20,04,41,13.50
2008,05,20,04,42,13.50
2008,05,20,04,43,13.50
2008,05,20,04,44,13.50
2008,05,20,04,45,13.50
2008,05,20,04,46,13.50
2008,05,20,04,47,13.50
2008,05,20,04,48,13.50
2008,05,20,04,49,13.50
2008,05,20,04,50,13.50
2008,05,20,04,51,13.50
2008,05,20,04,52,13.50
2008,05,20,04,53,13.50
2008,05,20,04,54,13.50
2008,05,20,04,55,13.50
2008,05,20,04,56,13.50
2008,05,20,04,57,13.50
2008,05,20,04,58,13.50
2008,05,20,04,59,13.50
2008,05,20,05,00,13.50
2008,05,20,05,01,13.50
2008,05,20,05,02,13.50
2008,05,20,05,03,13.50
2008,05,20,05,04,13.50
2008,05,20,05,05,13.50
2008,05,20,05,06,13.50
2008,05,20,05,07,13.50
2008,05,20,05,08,13.50
2008,05,20,05,09,13.50
2008,05,20,05,10,13.50
2008,05,20,05,11,13.50
2008,05,20,05,12,13.60
2008,05,20,05,13,13.60
2008,05,20,05,14,13.60
2008,05,20,05,15,13.60
2008,05,20,05,16,13.60
2008,05,20,05,17,13.60
2008,05,20,05,18,13.60
2008,05,20,05,19,13.60
2008,05,20,05,20,13.60
2008,05,20,05,21,13.60
2008,05,20,05,22,13.60
2008,05,20,05,23,13.60
2008,05,20,05,24,13.60
2008,05,20,05,25,13.60
2008,05,20,05,26,13.60
2008,05,20,05,27,13.60
2008,05,20,05,28,13.60
2008,05,20,05,29,13.60
2008,05,20,05,30,13.60
2008,05,20,05,31,13.60
2008,05,20,05,32,13.60
2008,05,20,05,33,13.60
2008,05,20,05,34,13.60
2008,05,20,05,35,13.60
2008,05,20,05,36,13.60
2008,05,20,05,37,13.60
2008,05,20,05,38,13.60
2008,05,20,05,39,13.60
2008,05,20,05,40,13.50
2008,05,20,05,41,13.50
2008,05,20,05,42,13.50
2008,05,20,05,43,13.50
2008,05,20,05,44,13.50
2008,05,20,05,45,13.50
2008,05,20,05,46,13.50
2008,05,20,05,47,13.50
2008,05,20,05,48,13.40
2008,05,20,05,49,13.40
2008,05,20,05,50,13.40
2008,05,20,05,51,13.40
2008,05,20,05,52,13.40
2008,05,20,05,53,13.40
2008,05,20,05,54,13.40
2008,05,20,05,55,13.40
2008,05,20,05,56,13.40
2008,05,20,05,57,13.30
2008,05,20,05,58,13.30
2008,05,20,05,59,13.30
2008,05,20,06,00,13.30
2008,05,20,06,01,13.30
2008,05,20,06,02,13.30
2008,05,20,06,03,13.30
2008,05,20,06,04,13.30
2008,05,20,06,05,13.30
2008,05,20,06,06,13.30
2008,05,20,06,07,13.30
2008,05,20,06,08,13.30
2008,05,20,06,09,13.30
2008,05,20,06,10,13.30
2008,05,20,06,11,13.30
2008,05,20,06,12,13.30
2008,05,20,06,13,13.30
2008,05,20,06,14,13.30
2008,05,20,06,15,13.30
2008,05,20,06,16,13.30
2008,05,20,06,17,13.30
2008,05,20,06,18,13.30
2008,05,20,06,19,13.30
2008,05,20,06,20,13.30
2008,05,20,06,21,13.30
2008,05,20,06,22,13.30
2008,05,20,06,23,13.30
2008,05,20,06,24,13.30
2008,05,20,06,25,13.30
2008,05,20,06,26,13.30
2008,05,20,06,27,13.40
2008,05,20,06,28,13.40
2008,05,20,06,29,13.40
2008,05,20,06,30,13.40
2008,05,20,06,31,13.40
2008,05,20,06,32,13.40
2008,05,20,06,33,13.40
2008,05,20,06,34,13.40
2008,05,20,06,35,13.30
2008,05,20,06,36,13.30
2008,05,20,06,37,13.30
2008,05,20,06,38,13.30
2008,05,20,06,39,13.30
2008,05,20,06,40,13.30
2008,05,20,06,41,13.30
2008,05,20,06,42,13.30
2008,05,20,06,43,13.30
2008,05,20,06,44,13.30
2008,05,20,06,45,13.30
2008,05,20,06,46,13.30
2008,05,20,06,47,13.30
2008,05,20,06,48,13.30
2008,05,20,06,49,13.30
2008,05,20,06,50,13.30
2008,05,20,06,51,13.30
2008,05,20,06,52,13.30
2008,05,20,06,53,13.30
2008,05,20,06,54,13.20
2008,05,20,06,55,13.20
2008,05,20,06,56,13.20
2008,05,20,06,57,13.20
2008,05,20,06,58,13.20
2008,05,20,06,59,13.20
2008,05,20,07,00,13.20
2008,05,20,07,01,13.20
2008,05,20,07,02,13.20
2008,05,20,07,03,13.20
2008,05,20,07,04,13.20
2008,05,20,07,05,13.20
2008,05,20,07,06,13.20
2008,05,20,07,07,13.20
2008,05,20,07,08,13.20
2008,05,20,07,09,13.20
2008,05,20,07,10,13.20
2008,05,20,07,11,13.20
2008,05,20,07,12,13.20
2008,05,20,07,13,13.30
2008,05,20,07,14,13.30
2008,05,20,07,15,13.30
2008,05,20,07,16,13.30
2008,05,20,07,17,13.30
2008,05,20,07,18,13.30
2008,05,20,07,19,13.30
2008,05,20,07,20,13.30
2008,05,20,07,21,13.30
2008,05,20,07,22,13.20
2008,05,20,07,23,13.20
2008,05,20,07,24,13.20
2008,05,20,07,25,13.20
2008,05,20,07,26,13.20
2008,05,20,07,27,13.20
2008,05,20,07,28,13.20
2008,05,20,07,29,13.20
2008,05,20,07,30,13.20
2008,05,20,07,31,13.20
2008,05,20,07,32,13.10
2008,05,20,07,33,13.10
2008,05,20,07,34,13.10
2008,05,20,07,35,13.10
2008,05,20,07,36,13.10
2008,05,20,07,37,13.10
2008,05,20,07,38,13.00
2008,05,20,07,39,13.00
2008,05,20,07,40,13.00
2008,05,20,07,41,13.00
2008,05,20,07,42,13.00
2008,05,20,07,43,13.00
2008,05,20,07,44,13.00
2008,05,20,07,45,13.00
2008,05,20,07,46,13.00
2008,05,20,07,47,13.00
2008,05,20,07,48,13.00
2008,05,20,07,49,13.00
2008,05,20,07,50,13.00
2008,05,20,07,51,13.00
2008,05,20,07,52,13.00
2008,05,20,07,53,13.00
2008,05,20,07,54,13.00
2008,05,20,07,55,13.00
2008,05,20,07,56,13.00
2008,05,20,07,57,13.00
2008,05,20,07,58,13.00
2008,05,20,07,59,13.00
2008,05,20,08,00,13.00
2008,05,20,08,01,13.00
2008,05,20,08,02,13.00
2008,05,20,08,53,12.80
2008,05,20,08,54,12.80
2008,05,20,08,55,12.80
2008,05,20,08,56,12.80
2008,05,20,08,57,12.80
2008,05,20,08,58,12.80
2008,05,20,08,59,12.80
2008,05,20,09,00,12.80
2008,05,20,09,01,12.80
2008,05,20,09,02,12.80
2008,05,20,09,03,12.80
2008,05,20,09,04,12.80
2008,05,20,09,05,12.80
2008,05,20,09,06,12.80
2008,05,20,09,07,12.80
2008,05,20,09,08,12.80
2008,05,20,09,09,12.80
2008,05,20,09,10,12.80
2008,05,20,09,11,12.80
2008,05,20,09,12,12.80
2008,05,20,09,13,12.80
2008,05,20,09,14,12.80
2008,05,20,09,15,12.80
2008,05,20,09,16,12.80
2008,05,20,09,17,12.80
2008,05,20,09,18,12.80
2008,05,20,09,19,12.80
2008,05,20,09,20,12.80
2008,05,20,09,21,12.80
2008,05,20,09,22,12.80
2008,05,20,09,23,12.80
2008,05,20,09,24,12.80
2008,05,20,09,25,12.80
2008,05,20,09,26,12.80
2008,05,20,09,27,12.80
2008,05,20,09,28,12.80
2008,05,20,09,29,12.80
2008,05,20,09,30,12.80
2008,05,20,09,31,12.80
2008,05,20,09,32,12.80
2008,05,20,09,33,12.80
2008,05,20,09,34,12.80
2008,05,20,09,35,12.80
2008,05,20,09,36,12.80
2008,05,20,09,37,12.80
2008,05,20,09,38,12.80
2008,05,20,09,39,12.80
2008,05,20,09,40,12.80
2008,05,20,09,41,12.80
2008,05,20,09,42,12.80
2008,05,20,09,43,12.80
2008,05,20,09,44,12.80
2008,05,20,09,45,12.80
2008,05,20,09,46,12.80
2008,05,20,09,47,12.80
2008,05,20,09,48,12.80
2008,05,20,09,49,12.80
2008,05,20,09,50,12.80
2008,05,20,09,51,12.80
2008,05,20,09,52,12.80
2008,05,20,09,53,12.80
2008,05,20,09,54,12.80
2008,05,20,09,55,12.80
2008,05,20,09,56,12.80
2008,05,20,09,57,12.80
2008,05,20,09,58,12.80
2008,05,20,09,59,12.80
2008,05,20,10,00,12.80
2008,05,20,10,01,12.90
2008,05,20,10,02,12.90
2008,05,20,10,03,12.90
2008,05,20,10,04,13.00
2008,05,20,10,05,13.00
2008,05,20,10,06,13.00
2008,05,20,10,07,13.00
2008,05,20,10,08,13.10
2008,05,20,10,09,13.10
2008,05,20,10,10,13.10
2008,05,20,10,11,13.20
2008,05,20,10,12,13.20
2008,05,20,10,13,13.20
2008,05,20,10,14,13.20
2008,05,20,10,15,13.20
2008,05,20,10,16,13.30
2008,05,20,10,17,13.30
2008,05,20,10,18,13.30
2008,05,20,10,19,13.30
2008,05,20,10,20,13.30
2008,05,20,10,21,13.30
2008,05,20,10,22,13.30
2008,05,20,10,23,13.30
2008,05,20,10,24,13.30
2008,05,20,10,25,13.30
2008,05,20,10,26,13.30
2008,05,20,10,27,13.20
2008,05,20,10,28,13.20
2008,05,20,10,29,13.20
2008,05,20,10,30,13.20
2008,05,20,10,31,13.20
2008,05,20,10,32,13.20
2008,05,20,10,33,13.30
2008,05,20,10,34,13.30
2008,05,20,10,35,13.30
2008,05,20,10,36,13.40
2008,05,20,10,37,13.50
2008,05,20,10,38,13.60
2008,05,20,10,39,13.60
2008,05,20,10,40,13.70
2008,05,20,10,41,13.70
2008,05,20,10,42,13.80
2008,05,20,10,43,13.90
2008,05,20,10,44,13.90
2008,05,20,10,45,14.00
2008,05,20,10,46,14.10
2008,05,20,10,47,14.20
2008,05,20,10,48,14.20
2008,05,20,10,49,14.20
2008,05,20,10,50,14.20
2008,05,20,10,51,14.20
2008,05,20,10,52,14.20
2008,05,20,10,53,14.30
2008,05,20,10,54,14.30
2008,05,20,10,55,14.50
2008,05,20,10,56,14.50
2008,05,20,10,57,14.60
2008,05,20,10,58,14.70
2008,05,20,10,59,14.60
2008,05,20,11,00,14.60
2008,05,20,11,01,14.60
2008,05,20,11,02,14.60
2008,05,20,11,03,14.60
2008,05,20,11,04,14.60
2008,05,20,11,05,14.60
2008,05,20,11,06,14.70
2008,05,20,11,07,14.70
2008,05,20,11,08,14.70
2008,05,20,11,09,14.80
2008,05,20,11,10,14.80
2008,05,20,11,11,14.80
2008,05,20,11,12,14.80
2008,05,20,11,13,14.80
2008,05,20,11,14,14.90
2008,05,20,11,15,14.90
2008,05,20,11,16,14.90
2008,05,20,11,17,14.90
2008,05,20,11,18,14.90
2008,05,20,11,19,14.90
2008,05,20,11,20,15.00
2008,05,20,11,21,15.10
2008,05,20,11,22,15.00
2008,05,20,11,23,14.90
2008,05,20,11,24,14.80
2008,05,20,11,25,14.80
2008,05,20,11,26,14.80
2008,05,20,11,27,14.80
2008,05,20,11,28,14.80
2008,05,20,11,29,14.80
2008,05,20,11,30,14.90
2008,05,20,11,31,14.80
2008,05,20,11,32,14.90
2008,05,20,11,33,14.90
2008,05,20,11,34,15.00
2008,05,20,11,35,15.00
2008,05,20,11,36,15.00
2008,05,20,11,37,15.00
2008,05,20,11,38,15.00
2008,05,20,11,39,15.00
2008,05,20,11,40,15.00
2008,05,20,11,41,15.00
2008,05,20,11,42,15.00
2008,05,20,11,43,15.00
2008,05,20,11,44,15.00
2008,05,20,11,45,15.00
2008,05,20,11,46,14.90
2008,05,20,11,47,14.90
2008,05,20,11,48,14.90
2008,05,20,11,49,14.90
2008,05,20,11,50,14.90
2008,05,20,11,51,14.90
2008,05,20,11,52,15.00
2008,05,20,11,53,15.00
2008,05,20,11,54,15.10
2008,05,20,11,55,15.10
2008,05,20,11,56,15.10
2008,05,20,11,57,15.10
2008,05,20,11,58,15.20
2008,05,20,11,59,15.20
2008,05,20,12,00,15.20
2008,05,20,12,01,15.20
2008,05,20,12,02,15.20
2008,05,20,12,03,15.20
2008,05,20,12,04,15.30
2008,05,20,12,05,15.30
2008,05,20,12,06,15.30
2008,05,20,12,07,15.30
2008,05,20,12,08,15.20
2008,05,20,12,09,15.30
2008,05,20,12,10,15.30
2008,05,20,12,11,15.30
2008,05,20,12,12,15.30
2008,05,20,12,13,15.40
2008,05,20,12,14,15.30
2008,05,20,12,15,15.30
2008,05,20,12,16,15.30
2008,05,20,12,17,15.30
2008,05,20,12,18,15.30
2008,05,20,12,19,15.30
2008,05,20,12,20,15.30
2008,05,20,12,21,15.30
2008,05,20,12,22,15.30
2008,05,20,12,23,15.30
2008,05,20,12,24,15.30
2008,05,20,12,25,15.30
2008,05,20,12,26,15.30
2008,05,20,12,27,15.30
2008,05,20,12,28,15.30
2008,05,20,12,29,15.40
2008,05,20,12,30,15.50
2008,05,20,12,31,15.50
2008,05,20,12,32,15.60
2008,05,20,12,33,15.60
2008,05,20,12,34,15.60
2008,05,20,12,35,15.50
2008,05,20,12,36,15.40
2008,05,20,12,37,15.40
2008,05,20,12,38,15.30
2008,05,20,12,39,15.30
2008,05,20,12,40,15.30
2008,05,20,12,41,15.30
2008,05,20,12,42,15.20
2008,05,20,12,43,15.20
2008,05,20,12,44,15.10
2008,05,20,12,45,15.10
2008,05,20,12,46,15.20
2008,05,20,12,47,15.20
2008,05,20,12,48,15.20
2008,05,20,12,49,15.20
2008,05,20,12,50,15.20
2008,05,20,12,51,15.20
2008,05,20,12,52,15.30
2008,05,20,12,53,15.30
2008,05,20,12,54,15.30
2008,05,20,12,55,15.50
2008,05,20,12,56,15.60
2008,05,20,12,57,15.80
2008,05,20,12,58,15.80
2008,05,20,12,59,15.80
2008,05,20,13,00,15.70
2008,05,20,13,01,15.60
2008,05,20,13,02,15.60
2008,05,20,13,03,15.50
2008,05,20,13,04,15.50
2008,05,20,13,05,15.40
2008,05,20,13,06,15.40
2008,05,20,13,07,15.50
2008,05,20,13,08,15.50
2008,05,20,13,09,15.50
2008,05,20,13,10,15.60
2008,05,20,13,11,15.60
2008,05,20,13,12,15.60
2008,05,20,13,13,15.70
2008,05,20,13,14,15.70
2008,05,20,13,15,15.60
2008,05,20,13,16,15.60
2008,05,20,13,17,15.60
2008,05,20,13,18,15.50
2008,05,20,13,19,15.40
2008,05,20,13,20,15.30
2008,05,20,13,21,15.30
2008,05,20,13,22,15.30
2008,05,20,13,23,15.20
2008,05,20,13,24,15.10
2008,05,20,13,25,15.10
2008,05,20,13,26,15.10
2008,05,20,13,27,15.10
2008,05,20,13,28,15.20
2008,05,20,13,29,15.20
2008,05,20,13,30,15.30
2008,05,20,13,31,15.30
2008,05,20,13,32,15.20
2008,05,20,13,33,15.20
2008,05,20,13,34,15.20
2008,05,20,13,35,15.10
2008,05,20,13,36,15.10
2008,05,20,13,37,15.00
2008,05,20,13,38,15.00
2008,05,20,13,39,14.90
2008,05,20,13,40,15.00
2008,05,20,13,41,15.00
2008,05,20,13,42,15.00
2008,05,20,13,43,15.00
2008,05,20,13,44,15.00
2008,05,20,13,45,15.00
2008,05,20,13,46,15.00
2008,05,20,13,47,15.00
2008,05,20,13,48,14.90
2008,05,20,13,49,14.80
2008,05,20,13,50,14.90
2008,05,20,13,51,15.00
2008,05,20,13,52,15.00
2008,05,20,13,53,15.10
2008,05,20,13,54,15.20
2008,05,20,13,55,15.30
2008,05,20,13,56,15.30
2008,05,20,13,57,15.40
2008,05,20,13,58,15.40
2008,05,20,13,59,15.50
2008,05,20,14,00,15.60
2008,05,20,14,01,15.70
2008,05,20,14,02,15.80
2008,05,20,14,03,15.80
2008,05,20,14,04,15.80
2008,05,20,14,05,15.80
2008,05,20,14,06,15.80
2008,05,20,14,07,15.60
2008,05,20,14,08,15.50
2008,05,20,14,09,15.40
2008,05,20,14,10,15.40
2008,05,20,14,11,15.40
2008,05,20,14,12,15.40
2008,05,20,14,13,15.30
2008,05,20,14,14,15.30
2008,05,20,14,15,15.30
2008,05,20,14,16,15.30
2008,05,20,14,17,15.30
2008,05,20,14,18,15.30
2008,05,20,14,19,15.30
2008,05,20,14,20,15.30
2008,05,20,14,21,15.30
2008,05,20,14,22,15.30
2008,05,20,14,23,15.30
2008,05,20,14,24,15.30
2008,05,20,14,25,15.30
2008,05,20,14,26,15.30
2008,05,20,14,58,15.20
2008,05,20,14,59,15.20
2008,05,20,15,00,15.10
2008,05,20,15,01,15.20
2008,05,20,15,02,15.20
2008,05,20,15,03,15.20
2008,05,20,15,04,15.30
2008,05,20,15,05,15.30
2008,05,20,15,06,15.30
2008,05,20,15,07,15.40
2008,05,20,15,08,15.40
2008,05,20,15,09,15.40
2008,05,20,15,10,15.40
2008,05,20,15,11,15.30
2008,05,20,15,12,15.30
2008,05,20,15,13,15.20
2008,05,20,15,14,15.20
2008,05,20,15,15,15.20
2008,05,20,15,16,15.20
2008,05,20,15,17,15.20
2008,05,20,15,18,15.30
2008,05,20,15,19,15.30
2008,05,20,15,20,15.40
2008,05,20,15,21,15.50
2008,05,20,15,22,15.50
2008,05,20,15,23,15.40
2008,05,20,15,24,15.30
2008,05,20,15,25,15.10
2008,05,20,15,26,15.00
2008,05,20,15,27,15.10
2008,05,20,15,28,15.10
2008,05,20,15,29,15.10
2008,05,20,15,30,15.10
2008,05,20,15,31,15.20
2008,05,20,15,32,15.20
2008,05,20,15,33,15.30
2008,05,20,15,34,15.30
2008,05,20,15,35,15.30
2008,05,20,15,36,15.30
2008,05,20,15,37,15.30
2008,05,20,15,38,15.40
2008,05,20,15,39,15.40
2008,05,20,15,40,15.30
2008,05,20,15,41,15.20
2008,05,20,15,42,15.10
2008,05,20,15,43,15.00
2008,05,20,15,44,15.00
2008,05,20,15,45,15.00
2008,05,20,15,46,14.90
2008,05,20,15,47,14.90
2008,05,20,15,48,14.90
2008,05,20,15,49,14.90
2008,05,20,15,50,14.80
2008,05,20,15,51,14.90
2008,05,20,15,52,14.90
2008,05,20,15,53,15.00
2008,05,20,15,54,15.10
2008,05,20,15,55,15.10
2008,05,20,15,56,15.10
2008,05,20,15,57,15.20
2008,05,20,15,58,15.10
2008,05,20,15,59,15.10
2008,05,20,16,00,15.00
2008,05,20,16,01,14.90
2008,05,20,16,02,14.80
2008,05,20,16,03,14.80
2008,05,20,16,04,14.80
2008,05,20,16,05,14.80
2008,05,20,16,06,14.80
2008,05,20,16,07,14.80
2008,05,20,16,08,14.80
2008,05,20,16,09,14.80
2008,05,20,16,10,14.80
2008,05,20,16,11,14.90
2008,05,20,16,12,14.90
2008,05,20,16,13,15.00
2008,05,20,16,14,15.00
2008,05,20,16,15,15.00
2008,05,20,16,16,15.00
2008,05,20,16,17,14.90
2008,05,20,16,18,14.90
2008,05,20,16,19,14.90
2008,05,20,16,20,14.90
2008,05,20,16,21,15.00
2008,05,20,16,22,15.00
2008,05,20,16,23,15.00
2008,05,20,16,24,15.00
2008,05,20,16,25,14.90
2008,05,20,16,26,14.90
2008,05,20,16,27,14.90
2008,05,20,16,28,14.90
2008,05,20,16,29,14.90
2008,05,20,16,30,14.80
2008,05,20,16,31,14.80
2008,05,20,16,32,14.80
2008,05,20,16,33,14.80
2008,05,20,16,34,14.80
2008,05,20,16,35,14.80
2008,05,20,16,36,14.80
2008,05,20,16,37,14.90
2008,05,20,16,38,14.90
2008,05,20,16,39,14.90
2008,05,20,16,40,14.90
2008,05,20,16,41,14.90
2008,05,20,16,42,14.90
2008,05,20,16,43,14.80
2008,05,20,16,44,14.80
2008,05,20,16,45,14.80
2008,05,20,16,46,14.80
2008,05,20,16,47,14.80
2008,05,20,16,48,14.80
2008,05,20,16,49,14.90
2008,05,20,16,50,14.90
2008,05,20,16,51,14.90
2008,05,20,16,52,14.80
2008,05,20,16,53,14.80
2008,05,20,16,54,14.70
2008,05,20,16,55,14.60
2008,05,20,16,56,14.50
2008,05,20,16,57,14.30
2008,05,20,16,58,14.30
2008,05,20,16,59,14.30
2008,05,20,17,00,14.30
2008,05,20,17,01,14.10
2008,05,20,17,02,13.90
2008,05,20,17,03,13.80
2008,05,20,17,04,13.70
2008,05,20,17,05,13.70
2008,05,20,17,06,13.70
2008,05,20,17,07,13.70
2008,05,20,17,08,13.60
2008,05,20,17,09,13.50
2008,05,20,17,10,13.50
2008,05,20,17,11,13.50
2008,05,20,17,12,13.40
2008,05,20,17,13,13.30
2008,05,20,17,14,13.30
2008,05,20,17,15,13.30
2008,05,20,17,16,13.30
2008,05,20,17,17,13.30
2008,05,20,17,18,13.30
2008,05,20,17,19,13.30
2008,05,20,17,20,13.30
2008,05,20,17,21,13.20
2008,05,20,17,22,13.20
2008,05,20,17,23,13.20
2008,05,20,17,24,13.20
2008,05,20,17,25,13.20
2008,05,20,17,26,13.20
2008,05,20,17,27,13.20
2008,05,20,17,28,13.20
2008,05,20,17,29,13.20
2008,05,20,17,30,13.20
2008,05,20,17,31,13.00
2008,05,20,17,32,12.90
2008,05,20,17,33,12.90
2008,05,20,17,34,13.00
2008,05,20,17,35,13.00
2008,05,20,17,36,12.90
2008,05,20,17,37,12.90
2008,05,20,17,38,12.90
2008,05,20,17,39,12.80
2008,05,20,17,40,12.80
2008,05,20,17,41,12.80
2008,05,20,17,42,12.80
2008,05,20,17,43,12.70
2008,05,20,17,44,12.70
2008,05,20,17,45,12.70
2008,05,20,17,46,12.70
2008,05,20,17,47,12.60
2008,05,20,17,48,12.60
2008,05,20,17,49,12.50
2008,05,20,17,50,12.50
2008,05,20,17,51,12.50
2008,05,20,17,52,12.40
2008,05,20,17,53,12.40
2008,05,20,17,54,12.40
2008,05,20,17,55,12.40
2008,05,20,17,56,12.40
2008,05,20,17,57,12.40
2008,05,20,17,58,12.30
2008,05,20,17,59,12.30
2008,05,20,18,00,12.30
2008,05,20,18,01,12.30
2008,05,20,18,02,12.30
2008,05,20,18,03,12.30
2008,05,20,18,04,12.30
2008,05,20,18,05,12.30
2008,05,20,18,06,12.30
2008,05,20,18,07,12.30
2008,05,20,18,08,12.30
2008,05,20,18,09,12.30
2008,05,20,18,10,12.30
2008,05,20,18,11,12.30
2008,05,20,18,12,12.30
2008,05,20,18,13,12.30
2008,05,20,18,14,12.30
2008,05,20,18,15,12.20
2008,05,20,18,16,12.20
2008,05,20,18,17,12.10
2008,05,20,18,18,12.10
2008,05,20,18,19,12.00
2008,05,20,18,20,12.00
2008,05,20,18,21,12.00
2008,05,20,18,22,12.00
2008,05,20,18,23,12.00
2008,05,20,18,24,12.00
2008,05,20,18,25,11.90
2008,05,20,18,26,11.90
2008,05,20,18,27,11.80
2008,05,20,18,28,11.80
2008,05,20,18,29,11.80
2008,05,20,18,30,11.80
2008,05,20,18,31,11.80
2008,05,20,18,32,11.80
2008,05,20,18,33,11.80
2008,05,20,18,34,11.80
2008,05,20,18,35,11.80
2008,05,20,18,36,11.80
2008,05,20,18,37,11.70
2008,05,20,18,38,11.70
2008,05,20,18,39,11.70
2008,05,20,18,40,11.70
2008,05,20,18,41,11.70
2008,05,20,18,42,11.70
2008,05,20,18,43,11.70
2008,05,20,18,44,11.70
2008,05,20,18,45,11.70
2008,05,20,18,46,11.70
2008,05,20,18,47,11.70
2008,05,20,18,48,11.70
2008,05,20,18,49,11.70
2008,05,20,18,50,11.70
2008,05,20,18,51,11.80
2008,05,20,18,52,11.80
2008,05,20,18,53,11.80
2008,05,20,18,54,11.80
2008,05,20,18,55,11.80